When you browse on this site, cookies collect data to enhance your experience and personalize the content and advertising you see.
Visit our Privacy Policy to learn more. By continuing to use the site, you agree to this use of cookies and data.
  • Em Portugal
  • Lista de países
  • Para 7 dias
  • Temperatura da água
  • Mapa do tempo
  • Widgets de tempo
  • user-avatar
    Iniciar Sessão

    Previsão horária em Peniche

    Hoje, 7 Abril, Terça-feira

    Tempo Temperatura Precipitação Vento Pressão Humidade
    00:00 +15°C° 0.2 mm 5 m/s 763 mmHg 98%
    01:00 +15°C° 0.2 mm 4 m/s 763 mmHg 98%
    02:00 +15°C° 0.2 mm 4 m/s 763 mmHg 97%
    03:00 +15°C° 0.1 mm 4 m/s 763 mmHg 97%
    04:00 +15°C° 0.1 mm 4 m/s 763 mmHg 97%
    05:00 +16°C° 0 mm 3 m/s 763 mmHg 97%
    06:00 +17°C° 0.1 mm 3 m/s 763 mmHg 93%
    07:00 +18°C° 0.1 mm 3 m/s 764 mmHg 89%
    08:00 +19°C° 0.1 mm 3 m/s 764 mmHg 85%
    09:00 +20°C° 0 mm 3 m/s 764 mmHg 79%
    10:00 +21°C° 0 mm 3 m/s 764 mmHg 74%
    11:00 +22°C° 0 mm 3 m/s 765 mmHg 68%
    12:00 +22°C° 0 mm 3 m/s 765 mmHg 67%
    13:00 +22°C° 0 mm 4 m/s 764 mmHg 67%
    14:00 +22°C° 0 mm 4 m/s 764 mmHg 66%
    15:00 +21°C° 0 mm 3 m/s 764 mmHg 71%
    16:00 +20°C° 0 mm 3 m/s 764 mmHg 76%
    17:00 +19°C° 0 mm 2 m/s 764 mmHg 81%
    18:00 +17°C° 0 mm 2 m/s 765 mmHg 86%
    19:00 +16°C° 0 mm 1 m/s 766 mmHg 90%
    20:00 +13°C° 0 mm 0 m/s 766 mmHg 95%
    21:00 +14°C° 0 mm 1 m/s 766 mmHg 95%
    22:00 +14°C° 0 mm 1 m/s 766 mmHg 95%
    23:00 +14°C° 0 mm 1 m/s 766 mmHg 95%

    Amanhã, 8 Abril, Quarta-feira

    Tempo Temperatura Precipitação Vento Pressão Humidade
    00:00 +14°C° 0 mm 2 m/s 766 mmHg 95%
    01:00 +14°C° 0 mm 2 m/s 765 mmHg 95%
    02:00 +14°C° 0 mm 2 m/s 765 mmHg 96%
    03:00 +14°C° 0 mm 2 m/s 765 mmHg 96%
    04:00 +13°C° 0 mm 3 m/s 765 mmHg 96%
    05:00 +13°C° 0 mm 3 m/s 765 mmHg 96%
    06:00 +14°C° 0.1 mm 3 m/s 765 mmHg 95%
    07:00 +14°C° 0.1 mm 3 m/s 765 mmHg 94%
    08:00 +16°C° 0.1 mm 3 m/s 765 mmHg 93%
    09:00 +16°C° 0.1 mm 3 m/s 765 mmHg 92%
    10:00 +17°C° 0.1 mm 3 m/s 765 mmHg 92%
    11:00 +17°C° 0.1 mm 3 m/s 765 mmHg 91%
    12:00 +18°C° 0 mm 2 m/s 765 mmHg 87%
    13:00 +18°C° 0 mm 2 m/s 765 mmHg 82%
    14:00 +19°C° 0 mm 2 m/s 765 mmHg 77%
    15:00 +20°C° 0 mm 1 m/s 764 mmHg 77%
    16:00 +20°C° 0 mm 1 m/s 764 mmHg 78%
    17:00 +20°C° 0 mm 1 m/s 764 mmHg 79%
    18:00 +19°C° 0 mm 1 m/s 764 mmHg 82%
    19:00 +18°C° 0 mm 1 m/s 764 mmHg 86%
    20:00 +15°C° 0 mm 1 m/s 765 mmHg 90%
    21:00 +15°C° 0 mm 1 m/s 765 mmHg 89%
    22:00 +15°C° 0 mm 2 m/s 764 mmHg 89%
    23:00 +15°C° 0 mm 2 m/s 764 mmHg 89%

    Depois de amanhã, 9 Abril, Quinta-feira

    Tempo Temperatura Precipitação Vento Pressão Humidade
    00:00 +15°C° 0 mm 2 m/s 764 mmHg 89%
    01:00 +15°C° 0 mm 2 m/s 763 mmHg 88%
    02:00 +14°C° 0 mm 3 m/s 763 mmHg 87%
    03:00 +14°C° 0 mm 3 m/s 762 mmHg 86%
    04:00 +14°C° 0 mm 3 m/s 762 mmHg 86%
    05:00 +14°C° 0 mm 3 m/s 762 mmHg 85%
    06:00 +16°C° 0.3 mm 3 m/s 762 mmHg 84%
    07:00 +17°C° 0.3 mm 4 m/s 762 mmHg 84%
    08:00 +17°C° 0.3 mm 4 m/s 763 mmHg 83%
    09:00 +16°C° 1 mm 5 m/s 763 mmHg 86%
    10:00 +16°C° 1 mm 5 m/s 763 mmHg 89%
    11:00 +15°C° 1 mm 6 m/s 763 mmHg 92%
    12:00 +16°C° 0 mm 6 m/s 763 mmHg 89%
    13:00 +16°C° 0 mm 6 m/s 763 mmHg 86%
    14:00 +17°C° 0 mm 7 m/s 762 mmHg 84%
    15:00 +16°C° 0.1 mm 6 m/s 762 mmHg 86%
    16:00 +16°C° 0.1 mm 5 m/s 762 mmHg 89%
    17:00 +16°C° 0.1 mm 5 m/s 762 mmHg 91%
    18:00 +15°C° 0 mm 4 m/s 763 mmHg 93%
    19:00 +15°C° 0 mm 4 m/s 763 mmHg 95%
    20:00 +16°C° 0 mm 3 m/s 763 mmHg 98%
    21:00 +15°C° 0 mm 4 m/s 763 mmHg 97%
    22:00 +15°C° 0 mm 4 m/s 763 mmHg 96%
    23:00 +15°C° 0 mm 4 m/s 763 mmHg 96%

    10 Abril, Sexta-feira

    Tempo Temperatura Precipitação Vento Pressão Humidade
    00:00 +16°C° 0 mm 3 m/s 763 mmHg 96%
    01:00 +16°C° 0 mm 3 m/s 763 mmHg 95%
    02:00 +14°C° 0 mm 3 m/s 763 mmHg 95%
    03:00 +14°C° 0 mm 3 m/s 763 mmHg 95%
    04:00 +14°C° 0 mm 3 m/s 763 mmHg 95%
    05:00 +15°C° 0 mm 2 m/s 764 mmHg 95%
    06:00 +16°C° 0 mm 2 m/s 764 mmHg 92%
    07:00 +16°C° 0 mm 2 m/s 764 mmHg 90%
    08:00 +16°C° 0 mm 1 m/s 764 mmHg 87%
    09:00 +17°C° 0 mm 2 m/s 764 mmHg 81%
    10:00 +18°C° 0 mm 2 m/s 764 mmHg 75%
    11:00 +19°C° 0 mm 2 m/s 764 mmHg 69%
    12:00 +19°C° 0 mm 3 m/s 764 mmHg 70%
    13:00 +19°C° 0 mm 3 m/s 764 mmHg 70%
    14:00 +20°C° 0 mm 3 m/s 763 mmHg 70%
    15:00 +19°C° 0 mm 3 m/s 763 mmHg 74%
    16:00 +18°C° 0 mm 3 m/s 763 mmHg 77%
    17:00 +18°C° 0 mm 3 m/s 763 mmHg 80%
    18:00 +16°C° 0 mm 2 m/s 764 mmHg 86%
    19:00 +15°C° 0 mm 2 m/s 764 mmHg 91%
    20:00 +14°C° 0 mm 1 m/s 764 mmHg 97%
    21:00 +14°C° 0 mm 1 m/s 764 mmHg 97%
    22:00 +14°C° 0 mm 1 m/s 764 mmHg 96%
    23:00 +14°C° 0 mm 1 m/s 764 mmHg 96%

    11 Abril, Sábado

    Tempo Temperatura Precipitação Vento Pressão Humidade
    00:00 +13°C° 0 mm 1 m/s 764 mmHg 96%
    01:00 +13°C° 0 mm 2 m/s 764 mmHg 95%
    02:00 +13°C° 0 mm 2 m/s 764 mmHg 95%
    03:00 +13°C° 0 mm 2 m/s 764 mmHg 95%
    04:00 +13°C° 0 mm 2 m/s 764 mmHg 94%
    05:00 +12°C° 0 mm 2 m/s 764 mmHg 94%
    06:00 +14°C° 0 mm 2 m/s 764 mmHg 88%
    07:00 +16°C° 0 mm 2 m/s 764 mmHg 82%
    08:00 +18°C° 0 mm 2 m/s 764 mmHg 76%
    09:00 +19°C° 0 mm 2 m/s 764 mmHg 71%
    10:00 +21°C° 0 mm 2 m/s 764 mmHg 65%
    11:00 +23°C° 0 mm 2 m/s 764 mmHg 60%
    12:00 +22°C° 0 mm 3 m/s 763 mmHg 63%
    13:00 +21°C° 0 mm 3 m/s 763 mmHg 65%
    14:00 +20°C° 0 mm 4 m/s 763 mmHg 68%
    15:00 +19°C° 0 mm 4 m/s 762 mmHg 72%
    16:00 +18°C° 0 mm 4 m/s 762 mmHg 77%
    17:00 +17°C° 0 mm 4 m/s 762 mmHg 82%
    18:00 +15°C° 0 mm 4 m/s 762 mmHg 84%
    19:00 +16°C° 0 mm 3 m/s 763 mmHg 87%
    20:00 +14°C° 0 mm 3 m/s 763 mmHg 89%
    21:00 +14°C° 0 mm 3 m/s 763 mmHg 87%
    22:00 +14°C° 0 mm 3 m/s 763 mmHg 85%
    23:00 +15°C° 0 mm 2 m/s 763 mmHg 83%

    12 Abril, Domingo

    Tempo Temperatura Precipitação Vento Pressão Humidade
    00:00 +15°C° 0 mm 2 m/s 762 mmHg 82%
    01:00 +15°C° 0 mm 2 m/s 762 mmHg 81%
    02:00 +16°C° 0 mm 2 m/s 761 mmHg 80%
    03:00 +14°C° 0 mm 3 m/s 761 mmHg 81%
    04:00 +14°C° 0 mm 3 m/s 761 mmHg 81%
    05:00 +14°C° 0 mm 3 m/s 761 mmHg 82%
    06:00 +16°C° 0.1 mm 3 m/s 761 mmHg 80%
    07:00 +17°C° 0.1 mm 3 m/s 761 mmHg 78%
    08:00 +19°C° 0.1 mm 2 m/s 761 mmHg 76%
    09:00 +20°C° 0.1 mm 3 m/s 761 mmHg 73%
    10:00 +21°C° 0.1 mm 3 m/s 761 mmHg 70%
    11:00 +22°C° 0.1 mm 3 m/s 761 mmHg 67%
    12:00 +22°C° 0.5 mm 3 m/s 761 mmHg 73%
    13:00 +21°C° 0.5 mm 3 m/s 760 mmHg 78%
    14:00 +20°C° 0.5 mm 3 m/s 760 mmHg 84%
    15:00 +19°C° 0.1 mm 3 m/s 760 mmHg 86%
    16:00 +18°C° 0.1 mm 4 m/s 760 mmHg 88%
    17:00 +18°C° 0.1 mm 4 m/s 759 mmHg 89%
    18:00 +17°C° 0 mm 4 m/s 759 mmHg 89%
    19:00 +17°C° 0 mm 4 m/s 759 mmHg 89%
    20:00 +15°C° 0 mm 4 m/s 759 mmHg 90%
    21:00 +15°C° 0 mm 5 m/s 759 mmHg 90%
    22:00 +14°C° 0 mm 5 m/s 759 mmHg 91%
    23:00 +14°C° 0 mm 6 m/s 759 mmHg 92%
    Mostrar mais